Fulton, NY

12:17 PM EST on February 19, 2017 (GMT -0500)
Oswego County

Weather History for KFZY - May, 2013

Change the Weather History Date:

Friday, May 17, 2013

  Actual Average (KSYR) Record (KSYR)
Temperature  
Mean Temperature 52 °F -  
Max Temperature 64 °F 69 °F 91 °F (1977)
Min Temperature 39 °F 47 °F 30 °F (1983)
Degree Days  
Heating Degree Days 14    
Growing Degree Days 2 (Base 50)    
Moisture  
Dew Point 40 °F    
Average Humidity 67    
Maximum Humidity 89    
Minimum Humidity 41    
Precipitation  
Precipitation 0.00 in - - ()
Sea Level Pressure  
Sea Level Pressure 30.15 in    
Wind  
Wind Speed 3 mph (NNW)    
Max Wind Speed 12 mph    
Max Gust Speed -    
Visibility 10 miles    
Events      
Averages and records for this station are not official NWS values.
T = Trace of Precipitation, MM = Missing Value Source: NWS Daily Summary

Daily Weather History Graph

Daily Weather History Graph

Search for Another Location

Airport or City:

Trip Planner

Search our weather history database for the weather conditions in past years. The results will help you decide how hot, cold, wet, or windy it might be!

Date:

Astronomy

May. 17, 2013 Rise Set
Actual Time 5:39 AM EDT 8:25 PM EDT
Civil Twilight 5:05 AM EDT 8:58 PM EDT
Nautical Twilight 4:24 AM EDT 9:40 PM EDT
Astronomical Twilight 3:35 AM EDT 10:29 PM EDT
Moon 12:14 PM EDT (5/17) 1:12 AM EDT (5/17)
Length of Visible Light 15h 52m
Length of Day
14h 46m
Waxing Crescent, 45% of the Moon is Illuminated
May 17
Waxing Crescent
May 18
First Quarter
May 25
Full
May 31
Last Quarter
Jun 8
New

Hourly Weather History & Observations

Time (EDT) Temp. Dew Point Humidity Pressure Visibility Wind Dir Wind Speed Gust Speed Precip Events Conditions
12:54 AM 48.0 °F 37.0 °F 66% 30.01 in 10.0 mi NNE 4.6 mph - N/A   Clear
1:54 AM 44.1 °F 37.0 °F 76% 30.01 in 10.0 mi Calm Calm - N/A   Clear
2:54 AM 42.1 °F 37.0 °F 82% 30.03 in 10.0 mi Calm Calm - N/A   Clear
3:54 AM 39.0 °F 36.0 °F 89% 30.06 in 10.0 mi Calm Calm - N/A   Clear
4:54 AM 39.9 °F 37.0 °F 89% 30.08 in 10.0 mi Calm Calm - N/A   Clear
5:54 AM 39.9 °F 37.0 °F 89% 30.11 in 10.0 mi Calm Calm - N/A   Clear
6:54 AM 44.1 °F 39.9 °F 85% 30.13 in 10.0 mi Calm Calm - N/A   Clear
8:54 AM 52.0 °F 42.1 °F 69% 30.17 in 10.0 mi Calm Calm - N/A   Clear
9:54 AM 55.9 °F 43.0 °F 62% 30.17 in 10.0 mi Variable 3.5 mph - N/A   Clear
10:54 AM 59.0 °F 42.1 °F 53% 30.19 in 10.0 mi NW 11.5 mph - N/A   Clear
11:54 AM 59.0 °F 42.1 °F 53% 30.19 in 10.0 mi NNW 5.8 mph - N/A   Clear
12:54 PM 60.1 °F 44.1 °F 55% 30.19 in 10.0 mi NW 8.1 mph - N/A   Clear
1:54 PM 61.0 °F 42.1 °F 50% 30.19 in 10.0 mi NNW 10.4 mph - N/A   Clear
3:54 PM 63.0 °F 39.9 °F 43% 30.19 in 10.0 mi Variable 3.5 mph - N/A   Clear
4:54 PM 64.0 °F 41.0 °F 43% 30.18 in 10.0 mi NNW 6.9 mph - N/A   Clear
5:54 PM 63.0 °F 39.0 °F 41% 30.18 in 10.0 mi NNW 5.8 mph - N/A   Clear
6:54 PM 61.0 °F 39.9 °F 46% 30.19 in 10.0 mi NW 6.9 mph - N/A   Clear
7:54 PM 57.9 °F 42.1 °F 56% 30.19 in 10.0 mi Calm Calm - N/A   Clear
8:54 PM 50.0 °F 42.1 °F 74% 30.21 in 10.0 mi Calm Calm - N/A   Clear
9:54 PM 46.9 °F 42.1 °F 83% 30.22 in 10.0 mi Calm Calm - N/A   Clear
10:54 PM 44.1 °F 41.0 °F 89% 30.23 in 10.0 mi Calm Calm - N/A   Clear
11:54 PM 43.0 °F 39.9 °F 89% 30.25 in 10.0 mi Calm Calm - N/A   Clear